Location: Unspecified
(0.0000°N, 0.0000°E)
Time: 20:57:19
(UTC+01:00)

ATLAS V CENTAUR R/B - Visible Passes

Search period start: 25 February 2018 00:00
Search period end: 07 March 2018 00:00
Orbit: 217 x 27584 km, 18.0° (Epoch: 25 February)

Date Brightness Start Highest point End Pass type
(mag) Time Alt. Az. Time Alt. Az. Time Alt. Az.
25 Feb 6.7 03:25:42 33° SSE 03:26:42 33° SSE 09:41:17 10° ENE visible
26 Feb 6.7 03:22:44 33° SSE 03:23:32 33° SSE 09:36:56 10° ENE visible
27 Feb 6.8 03:19:34 33° SSE 03:20:07 33° SSE 09:32:08 10° ENE visible
28 Feb 6.8 03:16:12 33° SSE 03:16:30 33° SSE 09:26:51 10° ENE visible
01 Mar 6.8 03:12:37 32° SSE 03:12:38 32° SSE 09:21:06 10° ENE visible
02 Mar 6.9 03:08:50 32° SSE 03:08:50 32° SSE 09:14:47 10° ENE visible
03 Mar 6.9 03:04:50 31° SSE 03:04:50 31° SSE 09:07:51 10° ENE visible
04 Mar 7.0 03:00:38 31° SE 03:00:38 31° SE 09:00:15 10° ENE visible
05 Mar 7.0 02:56:13 30° SE 02:56:13 30° SE 08:51:50 10° ENE visible
06 Mar 7.1 02:51:36 29° SE 02:51:36 29° SE 08:42:25 10° ENE visible
